This is the latest recevied weather packets stored in our database for station/object K9MWD. If no packets are shown the sender has not sent any weather packets the latest 1 day(s).
| Time | Temp. | Humidity | Pressure | Rain* | Wind** | Luminosity | Snow |
|---|---|---|---|---|---|---|---|
| 1778040878 | 23.33° C | 71% | 1008.4 hPa | 0 mm | - | 0 W/m² | - |
| 1778040575 | 23.33° C | 71% | 1008.4 hPa | 0 mm | - | 0 W/m² | - |
| 1778039666 | 23.89° C | 70% | 1007.9 hPa | 0 mm | - | 0 W/m² | - |
| 1778039060 | 23.89° C | 70% | 1007.9 hPa | 0 mm | - | 0 W/m² | - |
| 1778038757 | 23.89° C | 70% | 1007.7 hPa | 0 mm | - | 0 W/m² | - |
| 1778038454 | 23.89° C | 70% | 1007.7 hPa | 0 mm | - | 0 W/m² | - |
| 1778038150 | 24.44° C | 71% | 1007.7 hPa | 0 mm | - | 0 W/m² | - |
| 1778037848 | 25° C | 71% | 1007.9 hPa | 0 mm | - | 0 W/m² | - |
| 1778037544 | 26.11° C | 79% | 1008 hPa | 0 mm | - | 0 W/m² | - |
| 1778036939 | 26.11° C | 79% | 1007.4 hPa | 0 mm | - | 0 W/m² | - |
| 1778036637 | 26.11° C | 79% | 1007.3 hPa | 0 mm | - | 0 W/m² | - |
| 1778036334 | 26.11° C | 79% | 1007.2 hPa | 0 mm | - | 0 W/m² | - |
| 1778035425 | 25.56° C | 79% | 1006.7 hPa | 0 mm | - | 0 W/m² | - |
| 1778035120 | 25.56° C | 79% | 1006.6 hPa | 0 mm | - | 0 W/m² | - |
| 1778034817 | 25.56° C | 79% | 1006.4 hPa | 0 mm | - | 0 W/m² | - |
| 1778034212 | 25.56° C | 79% | 1006.1 hPa | 0 mm | - | 0 W/m² | - |
| 1778033910 | 25.56° C | 79% | 1006 hPa | 0 mm | - | 0 W/m² | - |
| 1778033607 | 25.56° C | 79% | 1006 hPa | 0 mm | - | 0 W/m² | - |
| 1778032699 | 25.56° C | 79% | 1005.7 hPa | 0 mm | - | 0 W/m² | - |
| 1778032396 | 26.11° C | 79% | 1005.5 hPa | 0 mm | - | 0 W/m² | - |
| 1778031486 | 26.11° C | 78% | 1005.1 hPa | 0 mm | - | 0 W/m² | - |
| 1778030879 | 26.11° C | 78% | 1005.2 hPa | 0 mm | - | 0 W/m² | - |
| 1778030274 | 26.67° C | 77% | 1005.1 hPa | 0 mm | - | 1 W/m² | - |
| 1778029970 | 26.67° C | 77% | 1005.1 hPa | 0 mm | - | 1 W/m² | - |
| 1778029668 | 26.67° C | 77% | 1005 hPa | 0 mm | - | 2 W/m² | - |
* Rain latest hour (hover to see other rain measurements)
** Current wind speed in m/s (hover to see current wind gust speed)